Location: *
(2.5500°S, 65.9667°W)
Time: 12:13:23
(UTC+00:00)

ATLAS 2A CENTAUR R/B - Pass Details

Date: 26 October 2021
Orbit: 267 x 15655 km, 26.9° (Epoch: 28 November)

Event Time Altitude Azimuth Distance (km) Brightness Sun altitude
Rises 23:23:09 0° 309° (NW) 4,232 6.9 -17.7°
Reaches altitude 10° 23:27:46 10° 324° (NW) 2,051 5.0 -18.9°
Enters shadow 23:30:06 19° 355° (N) 1,101 3.2 -19.4°
